Tracking 27420 objects as of 11-Jun-2023
HD Live streaming from Space Station
objects crossing your sky now

METEOR 2-8

Track METEOR 2-8 now!
10-day predictions
METEOR 2-8 is classified as:


NORAD ID: 13113
Int'l Code: 1982-025A
Perigee: 937.7 km
Apogee: 965.9 km
Inclination: 82.5 °
Period: 103.9 minutes
Semi major axis: 7322 km
RCS: 4.8522 m2 (large)
Launch date: March 25, 1982
Source: Commonwealth of Independent States (former USSR) (CIS)
Launch site: PLESETSK MISSILE AND SPACE COMPLEX (PKMTR)
Your satellite tracking list
Your tracking list is empty




NASA's NSSDC Master Catalog

Two Line Element Set (TLE):
1 13113U 82025A   23161.50588198  .00000064  00000-0  43170-4 0  9992
2 13113  82.5398 256.9274 0019235  98.8344 271.9398 13.85446915 82956
Source of the keplerian elements: AFSPC